This demonstration page uses our WeatherBlox Daily Observations layout. Learn more.

Left ArrowRight Arrow

Hourly Observations for December 22, 2015

Temp ( °F °C ) Dew Point ( °F °C ) Humidity (%) Winds ( mph kmh ) Pressure ( in mb ) Visibility ( mi km ) Precip ( " mm )
12:53 am 00:53 Cloudy 28 -2 25 -4 86 86 S 9 15 29.88 1012 10 16 0.00 0.00
12:58 am 00:58 Cloudy 28 -2.2 26 -3.6 90 90 SSE 8 13 29.86 1011 10 16 0.00 0.00
1:32 am 01:32 Cloudy 28 -2 27 -3 93 93 SSE 9 15 29.85 1011 10 16 0.00 0.00
1:56 am 01:56 Cloudy 28 -2 27 -3 93 93 SE 8 13 29.85 1011 10 16 0.00 0.00
1:58 am 01:58 Cloudy 28 -2 27 -3 93 93 SE 7 11 29.83 1010 10 16 0.00 0.00
2:52 am 02:52 Cloudy 28 -2 27 -3 93 93 SE 8 13 29.85 1011 9 14 0.00 0.00
2:58 am 02:58 Cloudy 28 -2.1 27 -2.8 95 95 SSE 8 13 29.83 1010 9 14 0.00 0.00
3:05 am 03:05 Cloudy 28 -2 28 -2 100 100 SSE 12 19 29.83 1010 8 13 0.00 0.00
3:22 am 03:22 Cloudy 28 -2 28 -2 100 100 SSE 9 15 29.83 1010 8 13 0.00 0.00
3:58 am 03:58 Cloudy 29 -1.7 28 -2.3 96 96 SSE 10 17 29.81 1009 9 14 0.00 0.00
4:43 am 04:43 Cloudy 28 -2 28 -2 100 100 SSE 10 17 29.80 1009 10 16 0.00 0.00
4:58 am 04:58 Cloudy 29 -1.5 28 -2.3 94 94 SSE 13 20 29.77 1008 10 16 0.00 0.00
5:14 am 05:14 Cloudy 28 -2 28 -2 100 100 SSE 14 22 29.80 1009 10 16 0.00 0.00
5:58 am 05:58 Cloudy 29 -1.4 28 -2.1 95 95 SSE 10 17 29.75 1008 10 16 0.00 0.00
6:43 am 06:43 Cloudy 30 -1 28 -2 93 93 SE 10 17 29.74 1007 8 13 0.00 0.00
6:58 am 06:58 Cloudy with Mist and Fog 30 -1.1 29 -1.4 98 98 SE 12 19 29.72 1007 3 5 0.00 0.00
7:41 am 07:41 Cloudy with Mist and Fog 32 0 30 -1 93 93 ESE 9 15 29.74 1007 3 5 0.00 0.00
7:47 am 07:47 Cloudy with Mist and Fog 30 -1 30 -1 100 100 ESE 10 17 29.74 1007 4 6 0.00 0.00
7:58 am 07:58 Cloudy with Mist and Fog 30 -1 30 -1.3 98 98 ESE 9 15 29.71 1006 4 6 0.00 0.00
8:17 am 08:17 Cloudy with Mist and Fog 30 -1 30 -1 100 100 ESE 9 15 29.74 1007 4 6 0.00 0.00
8:39 am 08:39 Cloudy with Mist and Fog 32 0 30 -1 93 93 ESE 9 15 29.74 1007 6 10 0.00 0.00
8:58 am 08:58 Mostly Cloudy with Mist and Fog 31 -0.5 30 -1.2 95 95 ESE 12 19 29.70 1006 6 10 0.00 0.00
9:13 am 09:13 Mostly Cloudy with Mist and Fog 32 0 32 0 100 100 ESE 13 20 29.71 1006 6 10 0.00 0.00
9:23 am 09:23 Mostly Cloudy with Mist and Fog 32 0 32 0 100 100 ESE 14 22 29.71 1006 6 10 0.00 0.00
9:28 am 09:28 Mostly Cloudy 32 0 32 0 100 100 ESE 15 24 29.71 1006 9 14 0.00 0.00
9:58 am 09:58 Partly Cloudy 33 0.6 31 -0.7 91 91 ESE 16 26 29.67 1005 10 16 0.00 0.00
10:58 am 10:58 Sunny 36 2.2 31 -0.5 83 83 SE 20 31 29.64 1004 10 16 0.00 0.00
11:58 am 11:58 Sunny 41 4.8 32 0 71 71 SE 20 31 29.55 1001 10 16 0.00 0.00
12:58 pm 12:58 Sunny 44 6.6 32 0.1 64 64 SE 23 37 29.50 999 10 16 0.00 0.00
1:58 pm 13:58 Sunny 46 7.7 33 0.5 61 61 SSE 24 39 29.48 998 10 16 0.00 0.00
2:58 pm 14:58 Sunny 45 7.4 35 1.6 67 67 SSE 21 33 29.46 998 10 16 0.00 0.00
3:58 pm 15:58 Sunny 44 6.9 35 1.9 71 71 SE 14 22 29.46 998 10 16 0.00 0.00
4:58 pm 16:58 Mostly Sunny 44 6.5 36 2 73 73 SE 13 20 29.43 997 10 16 0.00 0.00
5:58 pm 17:58 Clear 42 5.3 36 2.1 80 80 SE 14 22 29.44 997 10 16 0.00 0.00
6:58 pm 18:58 Mostly Clear 42 5.6 36 2.4 80 80 ESE 14 22 29.44 997 10 16 0.00 0.00
7:58 pm 19:58 Clear 42 5.3 37 2.5 82 82 ESE 13 20 29.45 997 10 16 0.00 0.00
8:58 pm 20:58 Clear 41 5.1 37 2.6 84 84 E 7 11 29.43 997 10 16 0.00 0.00
9:58 pm 21:58 Clear 41 5.2 37 2.7 84 84 E 6 9 29.41 996 10 16 0.00 0.00
10:58 pm 22:58 Mostly Clear 41 4.8 37 2.6 86 86 E 6 9 29.41 996 10 16 0.00 0.00
11:58 pm 23:58 Clear 40 4.3 37 2.6 89 89 ENE 7 11 29.39 995 10 16 0.00 0.00

Powered by AerisWeather